Location: *
(52.2090°N, 4.1550°W)
Time: 03:29:34
(UTC+00:00)

CENTAUR R/B - Pass Details

Date: 19 July 2019
Orbit: 780 x 1408 km, 63.4° (Epoch: 10 August)

Event Time Altitude Azimuth Distance (km) Brightness Sun altitude
Rises 21:11:26 0° 274° (W) 3,688 6.3 -6.0°
Reaches altitude 10° 21:14:06 10° 283° (WNW) 2,831 5.9 -6.3°
Maximum altitude 21:20:20 37° 349° (N) 1,710 4.4 -6.9°
Drops below altitude 10° 21:27:29 10° 55° (NE) 3,260 5.2 -7.6°
Sets 21:30:47 0° 64° (ENE) 4,312 5.7 -8.0°
